Regional Weather Roundup
Issued by NWS

Home | Current Version | Previous Version | Text Only | Print | Product List | Glossary Off
Versions: 1 2 3 4 5 6 7 8 9 10 11 12 13 14 15 16 17 18 19 20 21 22 23 24 25 26 27

000
ASUS45 KCYS 290010
RWRWY

WYOMING REGIONAL WEATHER ROUNDUP
NATIONAL WEATHER SERVICE CHEYENNE WY
600 PM MDT SUN AUG 28 2016

NOTE:  "FAIR" INDICATES FEW OR NO CLOUDS BELOW 12,000 FEET
WITH NO SIGNIFICANT WEATHER AND/OR OBSTRUCTIONS TO VISIBILITY.

WYZ001-290100-
YELLOWSTONE NATIONAL PARK

CITY           SKY/WX    TMP DP  RH WIND       PRES   REMARKS
LK YELLOWSTONE   N/A     69  29  22 VRB3      30.37R
6HR MIN TEMP:  61; 6HR MAX TEMP:  73;

W YELLOWSTONE  NOT AVBL

$$
WYZ002>013-054>058-071-098>099-290100-
NORTHERN WYOMING

CITY           SKY/WX    TMP DP  RH WIND       PRES   REMARKS
JACKSON        NOT AVBL
CODY           FAIR      81  30  16 E8        30.12R
GREYBULL       FAIR      88  29  12 SE5       30.02S
6HR MIN TEMP:  79; 6HR MAX TEMP:  89;

WORLAND        FAIR      88  34  14 NE7       30.04S
6HR MIN TEMP:  64; 6HR MAX TEMP:  90;

SHERIDAN       FAIR      87  37  17 N7        30.06R
6HR MIN TEMP:  86; 6HR MAX TEMP:  91;

BUFFALO        FAIR      86  29  12 N12       30.12R
6HR MIN TEMP:  85; 6HR MAX TEMP:  89;

GILLETTE       FAIR      86  30  13 N10       30.06R
6HR MIN TEMP:  82; 6HR MAX TEMP:  90;

HULETT         FAIR      86  37  17 E7        30.07R
NEWCASTLE      FAIR      88  30  12 SE6       30.05R

$$
WYZ014>020-022>026-101>103-290100-
CENTRAL WYOMING

CITY           SKY/WX    TMP DP  RH WIND       PRES   REMARKS
BIG PINEY      FAIR      79  27  14 N13       30.28S
6HR MIN TEMP:  72; 6HR MAX TEMP:  81;

PINEDALE       FAIR      77  27  15 NW10      30.29S
DUBOIS         FAIR      75  23  14 NW15      30.28R
LANDER         FAIR      85  32  15 E6        30.11S
6HR MIN TEMP:  79; 6HR MAX TEMP:  88;

RIVERTON       FAIR      85  30  13 E8        30.13S
6HR MIN TEMP:  81; 6HR MAX TEMP:  86;

CASPER         FAIR      86  25  11 NW7       30.12R
6HR MIN TEMP:  80; 6HR MAX TEMP:  87;

DOUGLAS        FAIR      87  23   9 NW6       30.11R
6HR MIN TEMP:  84; 6HR MAX TEMP:  89;


$$
WYZ021-027>030-104>119-290100-
SOUTHERN WYOMING

CITY           SKY/WX    TMP DP  RH WIND       PRES   REMARKS
EVANSTON       FAIR      78  23  13 N14G20    30.31R
6HR MIN TEMP:  74; 6HR MAX TEMP:  81;

FORT BRIDGER   FAIR      80  24  12 N12       30.32R
ROCK SPRINGS   FAIR      81  21  11 NW13      30.24S
6HR MIN TEMP:  75; 6HR MAX TEMP:  82;

DIXON          FAIR      82  25  12 SW3       30.26R
RAWLINS        FAIR      81  18   9 NW9       30.24S
6HR MIN TEMP:  76; 6HR MAX TEMP:  82;

SARATOGA       FAIR      79  25  13 NW12G18   30.27S
LARAMIE        FAIR      77  26  15 N9        30.27S
6HR MIN TEMP:  73; 6HR MAX TEMP:  79;

CHEYENNE       FAIR      77  40  26 S10       30.21R
6HR MIN TEMP:  74; 6HR MAX TEMP:  86;

TORRINGTON     FAIR      84  45  25 SE14      30.05S
6HR MIN TEMP:  84; 6HR MAX TEMP:  93;

PINE BLUFFS    FAIR      75  41  29 SE17G26   30.16S

$$




USA.gov is the U.S. government's official web portal to all federal, state and local government web resources and services.